Regional Weather Roundup
Issued by NWS

Home | Current Version | Previous Version | Graphics & Text | Print | Product List | Glossary On
Versions: 1 2 3 4 5 6 7 8 9 10 11 12 13 14 15 16 17 18 19 20 21 22 23 24 25 26 27 28 29 30 31 32 33 34 35 36 37 38 39 40 41 42 43 44 45 46 47 48 49 50
000
ASUS43 KLOT 261612
RWRIL

ILLINOIS REGIONAL WEATHER ROUNDUP
NATIONAL WEATHER SERVICE CHICAGO/ROMEOVILLE IL
1100 AM CDT SUN APR 26 2015

NOTE: "FAIR" INDICATES FEW OR NO CLOUDS BELOW 12,000 FEET WITH NO
SIGNIFICANT WEATHER AND/OR OBSTRUCTIONS TO VISIBILITY.

* THESE STATIONS ARE NOT UNDER NWS QUALITY CONTROL. THEY ALSO MAY NOT
  REPORT WEATHER SUCH AS PRECIPITATION OR FOG.

ILZ001-002-007-009-015-016-024-261700-
NORTHWEST ILLINOIS

CITY           SKY/WX    TMP DP  RH WIND       PRES   REMARKS
MOLINE         SUNNY     52  31  44 E13       30.05R
STERLING*      SUNNY     52  36  54 E14G21    30.05S
SAVANNA*       SUNNY     53  31  44 E10       30.07R
$$

ILZ003-004-008-010-011-017-018-261700-
NORTH CENTRAL ILLINOIS

CITY           SKY/WX    TMP DP  RH WIND       PRES   REMARKS
ROCKFORD       SUNNY     53  29  39 NE8       30.08R
FREEPORT*      SUNNY     50  31  47 E6        30.08R
ROCHELLE*      SUNNY     49  34  54 NE12      30.05S
DE KALB*       SUNNY     49  31  51 E10       30.05R
PERU*          SUNNY     51  34  52 NE13G18   30.05R
$$

ILZ005-006-012>014-019>023-261700-
NORTHEAST ILLINOIS

CITY           SKY/WX    TMP DP  RH WIND       PRES   REMARKS
CHICAGO-OHARE  SUNNY     50  29  44 NE10      30.03R
CHICAGO-MIDWAY SUNNY     52  29  41 N10       30.03R
AURORA         SUNNY     52  30  43 E13       30.04R
LANSING*       SUNNY     48  31  50 NE13      30.03R
JOLIET*        SUNNY     53  33  46 NE9       30.03R
WAUKEGAN       SUNNY     48  35  60 NE10      30.04R
DUPAGE AIRPORT SUNNY     51  30  44 E10       30.03R
KANKAKEE*      SUNNY     51  33  52 NE15G21   30.01S
WHEELING       SUNNY     50  29  44 N10       30.04S
MORRIS*        SUNNY     51  31  46 E10       30.01R
ROMEOVILLE*    SUNNY     51  30  45 E8        30.03R
NORTHERLY ISL    N/A     44  35  70 N15         N/A
$$

LMZ740>746-261700-
SOUTHERN LAKE MICHIGAN

STATION/POSITION SKY/WX   TEMP    WIND        PRES    VSBY  WAVE
                          AIR SEA DIR/SP/G                  HT/PER
                          (F)     (DEG/KT/KT) (MB)    (MI)  (FT/S)
HARRISON CRIB              40     350/ 15/ 17   N/A
BURNHAM HARBOR             43     360/ 13/ 14   N/A
CALUMET HARBOR             44     350/ 10/ 13   N/A
BURNS HARBOR               41      10/ 10/ 12 1016.9R
MICHIGAN CITY              40     350/ 15/ 16   N/A
MICHIGAN CITY 6N           40 45   10/ 12/ 16   N/A           3/ 5
$$

ILZ025>027-034>036-040-047-049-050-058-095>099-261700-
WEST-CENTRAL ILLINOIS

CITY           SKY/WX    TMP DP  RH WIND       PRES   REMARKS
QUINCY         SUNNY     53  35  50 NE10      30.00S
GALESBURG*     SUNNY     52  37  56 NE12      30.03R
MACOMB*        SUNNY     52  39  60 NE12G20   30.04S
JACKSONVILLE*  SUNNY     55  37  51 N7        29.99R
PITTSFIELD*    SUNNY     54  37  52 E9G16     30.00R
$$

ILZ028>032-037-038-041>044-048-051>054-059>061-261700-
CENTRAL ILLINOIS

CITY           SKY/WX    TMP DP  RH WIND       PRES   REMARKS
PONTIAC        SUNNY     52  38  60 NE13      30.02R
BLOOMINGTON    SUNNY     52  37  56 NE17      30.01R
DECATUR        SUNNY     53  37  54 N15       29.98R
PEORIA         SUNNY     55  33  43 E10       30.02R
LACON*         SUNNY     52  34  50 NE9       30.03R
LINCOLN*       SUNNY     53  39  58 NE12      29.99R
SPRINGFIELD    MOSUNNY   55  39  54 N9        30.00R
TAYLORVILLE    MOSUNNY   52  39  62 N13       29.98R
$$

ILZ033-039-045-046-055>057-062-063-261700-
EAST-CENTRAL ILLINOIS

CITY           SKY/WX    TMP DP  RH WIND       PRES   REMARKS
CHAMPAIGN      MOSUNNY   53  39  59 N13       29.96S
DANVILLE*      SUNNY     51  38  61 NE12      29.94R
RANTOUL*       SUNNY     52  36  54 NE14      29.98R
MATTOON        SUNNY     53  38  56 NE16      29.94R
PARIS*         SUNNY     53  37  54 NE9G17    29.95S
$$

ILZ079-100>102-261700-
SOUTHWEST ILLINOIS

CITY           SKY/WX    TMP DP  RH WIND       PRES   REMARKS
ALTON          SUNNY     54  32  43 NE14      29.96R
BELLEVILLE     SUNNY     56  42  58 NE9       29.93S
CAHOKIA*       SUNNY     56  40  55 N9        29.95R
SPARTA*        SUNNY     53  41  63 N12       29.94R
$$

ILZ064>066-069>071-074>076-080>082-084>086-088>090-092>094-261700-
SOUTH-CENTRAL ILLINOIS

CITY           SKY/WX    TMP DP  RH WIND       PRES   REMARKS
CARBONDALE     PTSUNNY   54  42  64 N9        29.92R
CAIRO*         CLOUDY    51  46  80 N9        29.90R
EFFINGHAM*     SUNNY     55  32  41 N9G16     29.96R
MARION         MOSUNNY   54  43  66 NE14      29.92R
MT. VERNON     SUNNY     55  37  50 N9        29.92S
CENTRALIA*     SUNNY     60  37  42 N9        29.93R
SALEM*         SUNNY     56  32  41 NE13      29.93S
METROPOLIS*    CLOUDY    52  46  80 N10       29.89R
$$

ILZ067-068-072-073-078-083-087-091-261700-
SOUTHEAST ILLINOIS

CITY           SKY/WX    TMP DP  RH WIND       PRES   REMARKS
LAWRENCEVILLE  SUNNY     55  36  48 NE15      29.91R
FLORA*         SUNNY     54  34  46 N14       29.93R
FAIRFIELD*     SUNNY     55  36  48 NE8       29.91R
HARRISBURG*    PTSUNNY   55  42  63 N8G16     29.92R
ROBINSON*      SUNNY     54  36  51 NE13      29.93R
CARMI*         SUNNY     55  33  44 NE10      29.91R
$$

ABBREVIATIONS USED IN REMARKS
   TC - TEMPERATURE IN CELSIUS
  WCI - WIND CHILL INDEX
   HX - HEAT INDEX
  VSB - VISIBILITY
$$




USA.gov is the U.S. government's official web portal to all federal, state and local government web resources and services.